Weather History for Connaught Airport, Ireland

Change the Weather History Date:

Thursday, July 25, 2013

  Actual Average Record
Temperature  
Mean Temperature 62 °F -  
Max Temperature 68 °F - - ()
Min Temperature 55 °F - - ()
Degree Days  
Heating Degree Days 4    
Growing Degree Days 12 (Base 50)    
Moisture  
Dew Point 56 °F    
Average Humidity 77    
Maximum Humidity 100    
Minimum Humidity 54    
Precipitation  
Precipitation 0.00 in - - ()
Sea Level Pressure  
Sea Level Pressure 29.79 in    
Wind  
Wind Speed 4 mph ()    
Max Wind Speed 12 mph    
Max Gust Speed -    
Visibility 5.4 miles    
Events Fog , Rain    
T = Trace of Precipitation, MM = Missing Value Source: Averaged Metar Reports

Daily Weather History Graph

Daily Weather History Graph

Search for Another Location

Airport:

Trip Planner

Search our weather history database for the weather conditions in past years. The results will help you decide how hot, cold, wet, or windy it might be!

Date:

Astronomy

Jul. 25, 2013 Rise Set
Actual Time 5:37 AM IST 9:44 PM IST
Civil Twilight 4:51 AM IST 10:30 PM IST
Nautical Twilight 3:42 AM IST 11:38 PM IST
Astronomical Twilight 2:14 AM IST 1:09 AM IST
Moon 10:32 PM IST (7/25) 9:31 AM IST (7/25)
Length of Visible Light 17h 39m
Length of Day
16h 07m
Waning Gibbous, 90% of the Moon is Illuminated
Jul 25
Waning Gibbous
Jul 29
Last Quarter
Aug 6
New
Aug 14
First Quarter
Aug 21
Full

Hourly Weather History & Observations

Time (IST) Temp. Dew Point Humidity Pressure Visibility Wind Dir Wind Speed Gust Speed Precip Events Conditions
1:00 AM 58 °F 58 °F 100% 29.77 in - South 2.2 mph - -  
7:00 AM 56 °F 55 °F 97% 29.79 in 3 mi West 6.7 mph - - Fog Light Fog
7:00 AM 55.4 °F 55.4 °F 100% 29.77 in 3.1 mi West 5.8 mph - N/A Fog Fog
7:30 AM 57.2 °F 55.4 °F 94% 29.77 in 3.1 mi NW 3.5 mph - N/A   Scattered Clouds
8:00 AM 57.2 °F 55.4 °F 94% 29.77 in 2.5 mi WNW 3.5 mph - N/A Fog Fog
8:30 AM 57.2 °F 55.4 °F 94% 29.77 in 2.5 mi WNW 4.6 mph - N/A   Scattered Clouds
9:00 AM 59.0 °F 55.4 °F 88% 29.80 in 2.5 mi WNW 3.5 mph - N/A Fog Fog
9:30 AM 60.8 °F 55.4 °F 82% 29.80 in 6.2 mi WNW 4.6 mph - N/A   Scattered Clouds
10:00 AM 60.8 °F 55.4 °F 82% 29.80 in 6.2 mi West 5.8 mph - N/A   Scattered Clouds
10:30 AM 62.6 °F 55.4 °F 77% 29.80 in 6.2 mi West 3.5 mph - N/A   Partly Cloudy
11:00 AM 62.6 °F 55.4 °F 77% 29.80 in 6.2 mi NW 4.6 mph - N/A   Partly Cloudy
11:30 AM 64.4 °F 55.4 °F 73% 29.80 in 6.2 mi West 4.6 mph - N/A   Partly Cloudy
12:00 PM 66.2 °F 55.4 °F 68% 29.80 in 6.2 mi West 2.3 mph - N/A   Partly Cloudy
12:30 PM 66.2 °F 55.4 °F 68% 29.80 in 6.2 mi Variable 3.5 mph - N/A   Partly Cloudy
1:00 PM 66 °F 53 °F 54% 29.79 in 28 mi WSW 4.5 mph - -   Mostly Cloudy
1:00 PM 66.2 °F 53.6 °F 64% 29.80 in 6.2 mi WSW 3.5 mph - N/A   Scattered Clouds
1:30 PM 68.0 °F 53.6 °F 60% 29.80 in 6.2 mi Variable 2.3 mph - N/A   Scattered Clouds
2:00 PM 68.0 °F 53.6 °F 60% 29.77 in 6.2 mi WNW 5.8 mph - N/A   Scattered Clouds
2:30 PM 68.0 °F 53.6 °F 60% 29.77 in 6.2 mi SSW 3.5 mph - N/A   Scattered Clouds
3:00 PM 68.0 °F 57.2 °F 68% 29.77 in 6.2 mi South 11.5 mph - N/A   Scattered Clouds
3:30 PM 66.2 °F 55.4 °F 68% 29.77 in 6.2 mi SSW 8.1 mph - N/A   Mostly Cloudy
4:00 PM 66.2 °F 57.2 °F 73% 29.80 in 6.2 mi WSW 11.5 mph - N/A   Mostly Cloudy
4:30 PM 64.4 °F 55.4 °F 73% 29.80 in 6.2 mi SW 8.1 mph - N/A   Mostly Cloudy
5:00 PM 64.4 °F 57.2 °F 77% 29.80 in 6.2 mi SW 6.9 mph - N/A Rain Light Rain Showers
5:30 PM 62.6 °F 57.2 °F 82% 29.80 in 6.2 mi WNW 6.9 mph - N/A   Mostly Cloudy
6:00 PM 64.4 °F 57.2 °F 77% 29.80 in 6.2 mi WNW 8.1 mph - N/A   Mostly Cloudy
7:00 PM 64.4 °F 57.2 °F 77% 29.80 in 6.2 mi North 8.1 mph - N/A   Mostly Cloudy